Find Starlink 37058

NORAD ID: 68195 Int'l Des: 2026-050 Owner: SPXS Country: US Constellation: starlink operational
LEOCIRCULAR

Live Position

Loading 3D Globe...

About Starlink 37058

Description loading...

Upcoming Passes

Passes for default location (London). Set your location on the main map for personalized predictions.

Altitude History

Loading altitude history...

Two-Line Element Set

1 68195U 26050AE 26112.00002315 .00040812 00000-0 90978-3 0 9996
2 68195 53.1605 67.0835 0001337 99.1624 235.0094 15.43209966 6065
Epoch: Apr 22, 2026 • Age: 17 hours

Current Status

Altitude 438.0 km
Velocity 7.65 km/s
Sub-Earth Point -2.81°S, 47.1°W
Launch Date Mar 14, 2026
Age 0.1 years
Type internet

Technical Details

Classification Payload
Mass 575.00 kg
Dry Mass 530.00 kg
Total Mass 575.00 kg
Length 0.30 m
Diameter 4.10 m
Span 29.00 m
Shape Box + pan
Manufacturer SPXS
Bus Type Starlink V2MO
Phase Status In Orbit
Owner/State SPXS/US

Most Searched